Regional Weather Roundup
Issued by NWS Northern Indiana

Home | Current Version | Previous Version | Graphics & Text | Print | Product List | Glossary On
Versions: 1 2 3 4 5 6 7 8 9 10 11 12 13 14 15 16 17 18 19 20 21 22 23 24 25 26 27 28 29 30 31 32 33 34 35 36 37 38 39 40 41 42 43 44 45 46 47 48 49 50
000
ASUS43 KIWX 190010
RWRIWX

KIWX WEATHER ROUNDUP
NATIONAL WEATHER SERVICE NORTHERN INDIANA
700 PM EST SAT NOV 18 2017

NOTE: "FAIR" INDICATES FEW OR NO CLOUDS BELOW 12,000 FEET WITH NO
SIGNIFICANT WEATHER AND/OR OBSTRUCTIONS TO VISIBILITY.

* THESE STATIONS ARE NOT UNDER NWS QUALITY CONTROL. THEY ALSO MAY NOT
  REPORT WEATHER SUCH AS PRECIPITATION OR FOG.

INZ001>027-190100-
NORTHERN INDIANA

CITY           SKY/WX    TMP DP  RH WIND       PRES   REMARKS
GARY*          CLOUDY    41  36  81 NW25G40   29.63R
VALPARAISO     CLOUDY    43  39  86 N17G31    29.58R
6HR MIN TEMP:  43; 6HR MAX TEMP:  47; 6HR PCP:  0.08;

MICHIGAN CITY* RAIN      41  39  93 N17G31    29.58R
LAPORTE*       LGT RAIN  41  39  91 N22G36    29.56R
6HR MIN TEMP:  41; 6HR MAX TEMP:  43;

KNOX*          CLOUDY    41  37  87 N28G38    29.53R
SOUTH BEND     LGT RAIN  41  41 100 N21G28    29.52R FOG
6HR MIN TEMP:  40; 6HR MAX TEMP:  42; 6HR PCP:  0.12;

GOSHEN         LGT RAIN  39  34  82 N18       29.47R
6HR MIN TEMP:  39; 6HR MAX TEMP:  47; 6HR PCP:  0.16;

MONTICELLO*    CLOUDY    41  39  93 NW25G31   29.55R
6HR MIN TEMP:  41; 6HR MAX TEMP:  47; 6HR PCP:  0.17;

LOGANSPORT*    CLOUDY    41  37  87 NW12G23   29.53R
ROCHESTER*     CLOUDY    43  41  93 N15G21    29.50R
WARSAW*        LGT RAIN  37  36  93 N14G25    29.47R
AUBURN*        LGT RAIN  37  36  93 NW17G23   29.41R
FORT WAYNE     LGT RAIN  41  37  86 NW22G31   29.41R
6HR MIN TEMP:  41; 6HR MAX TEMP:  55; 6HR PCP:  0.30;

HUNTINGTON*    RAIN      38  37  96 N15G24    29.45R
6HR MIN TEMP:  38; 6HR MAX TEMP:  54; 6HR PCP:  0.14;

PERU/GRISSOM   LGT RAIN  42  41  99 NW14      29.49R
6HR MIN TEMP:  41; 6HR MAX TEMP:  52; 6HR PCP:  0.15;

MARION*        LGT RAIN  40  39  99 N18G29    29.47R
                                      6HR PCP:  0.90;


$$
INZ028>050-190100-
CENTRAL INDIANA

CITY           SKY/WX    TMP DP  RH WIND       PRES   REMARKS
LAFAYETTE      LGT RAIN  39  38  96 NW22G33   29.59R
6HR MIN TEMP:  38; 6HR MAX TEMP:  48; 6HR PCP:  0.14;

KOKOMO*        LGT RAIN  42  39  89 NW22G29   29.50R
6HR MIN TEMP:  41; 6HR MAX TEMP:  53; 6HR PCP:  0.16;

MUNCIE*        LGT RAIN  43  40  89 NW23      29.43R FOG
6HR MIN TEMP:  43; 6HR MAX TEMP:  64; 6HR PCP:  1.44;

INDIANAPOLIS   LGT RAIN  40  37  89 NW22G33   29.54R
6HR MIN TEMP:  40; 6HR MAX TEMP:  64; 6HR PCP:  0.75;


$$
MIZ043>046-050>051-056>058-064>065-071>073-077>080-190100-
SOUTHWEST LOWER MICHIGAN

CITY           SKY/WX    TMP DP  RH WIND       PRES   REMARKS
BATTLE CREEK   LGT RAIN  37  34  89 N13       29.47R
6HR MIN TEMP:  36; 6HR MAX TEMP:  44; 6HR PCP:  0.29;

BENTON HARBOR  CLOUDY    43  38  82 N8G20     29.54R
6HR MIN TEMP:  42; 6HR MAX TEMP:  44; 6HR PCP:  0.28;

COLDWATER*     LGT SNOW  35  35 100 N15G21    29.44R WCI  25
6HR MIN TEMP:  35; 6HR MAX TEMP:  46;

HILLSDALE*     LGT SNOW  34  32  93 NW22G29   29.39R WCI  22
HOLLAND        CLOUDY    41  37  86 N10       29.54R
6HR MIN TEMP:  40; 6HR MAX TEMP:  41; 6HR PCP:  0.30;

GRAND RAPIDS   CLOUDY    40  39  97 N12       29.49R
6HR MIN TEMP:  37; 6HR MAX TEMP:  41; 6HR PCP:  0.37;

KALAMAZOO      LGT RAIN  37  33  85 N17G25    29.48R
6HR MIN TEMP:  37; 6HR MAX TEMP:  43; 6HR PCP:  0.18;

STURGIS*       LGT RAIN  36  34  93 N14G49    29.44R
THREE RIVERS*  LGT RAIN  38  36  91 N10G17    29.47R
6HR MIN TEMP:  38; 6HR MAX TEMP:  45;


$$
OHZ001>008-015>018-024>025-190100-
NORTHWEST OHIO

CITY           SKY/WX    TMP DP  RH WIND       PRES   REMARKS
WAUSEON*       MIX PCPN  39  39 100 N21G32    29.35R
DEFIANCE       LGT RAIN  40  37  89 N23G32    29.35R
6HR MIN TEMP:  40; 6HR MAX TEMP:  53; 6HR PCP:  0.38;

FINDLAY        LGT RAIN  46  42  86 N18G30    29.28R FOG
6HR MIN TEMP:  46; 6HR MAX TEMP:  56; 6HR PCP:  1.04;

TOLEDO EXPRESS LGT RAIN  43  42  97 NW22G33   29.30R FOG
6HR MIN TEMP:  43; 6HR MAX TEMP:  52; 6HR PCP:  0.46;

TOLEDO METCALF CLOUDY    45  42  89 N22G29    29.29R
6HR MIN TEMP:  45; 6HR MAX TEMP:  53; 6HR PCP:  0.43;


$$
AND FOR LAKE MICHIGAN COASTAL AND OPEN LAKE BUOY OBSERVATIONS

STATION/POSITION TEMP    WIND        PRES    VSBY  WAVE
                 AIR SEA DIR/SP/G                  HT/PER
                 (F)     (DEG/KT/KT) (MB)    (MI)  (FT/S)
MICHIGAN CITY     42     330/ 41/ 44   N/A
BURNS HARBOR      43     340/ 28/ 38 1002.0R
SAINT JOSEPH      45     340/ 27/ 34 1001.7
SOUTH LAKE BUOY   42 49  360/ 29/ 35 1000.4         10/ 8

$$
&&



USA.gov is the U.S. government's official web portal to all federal, state and local government web resources and services.